Time,TemperatureF,DewpointF,PressureIn,WindDirection,WindDirectionDegrees,WindSpeedMPH,WindSpeedGustMPH,Humidity,HourlyPrecipIn,Conditions,Clouds,dailyrainin,SolarRadiationWatts/m^2,SoftwareType,DateUTC
2013-04-10 00:02:00,54.0,22.0,-100.00,North,354,3.0,9.0,28,-99.99,,,-99.99,0.000000,,2013-04-10 07:02:00,
2013-04-10 00:22:00,53.0,22.0,-100.00,NNW,333,4.0,8.0,29,-99.99,,,-99.99,0.000000,,2013-04-10 07:22:00,
2013-04-10 00:32:00,53.0,22.0,-100.00,NNW,333,4.0,8.0,30,-99.99,,,-99.99,0.000000,,2013-04-10 07:32:00,
2013-04-10 00:42:00,52.0,22.0,-100.00,NNW,345,3.0,7.0,30,-99.99,,,-99.99,0.000000,,2013-04-10 07:42:00,
2013-04-10 00:52:00,52.0,22.0,-100.00,NNW,342,3.0,7.0,30,-99.99,,,-99.99,0.000000,,2013-04-10 07:52:00,
2013-04-10 01:00:00,52.0,21.0,-100.00,NNW,340,4.0,9.0,29,-99.99,,,-99.99,0.000000,,2013-04-10 08:00:00,
2013-04-10 01:02:00,52.0,21.0,-100.00,NNW,335,4.0,9.0,29,-99.99,,,-99.99,0.000000,,2013-04-10 08:02:00,
2013-04-10 01:12:00,53.0,21.0,-100.00,NNW,337,4.0,9.0,29,-99.99,,,-99.99,0.000000,,2013-04-10 08:12:00,
2013-04-10 01:22:00,53.0,21.0,-100.00,NNW,337,4.0,9.0,29,-99.99,,,-99.99,0.000000,,2013-04-10 08:22:00,
2013-04-10 01:32:00,53.0,21.0,-100.00,NNW,336,5.0,10.0,29,-99.99,,,-99.99,0.000000,,2013-04-10 08:32:00,
2013-04-10 01:42:00,52.0,21.0,-100.00,NNW,340,4.0,9.0,29,-99.99,,,-99.99,0.000000,,2013-04-10 08:42:00,
2013-04-10 01:52:00,52.0,21.0,-100.00,NNW,340,4.0,9.0,29,-99.99,,,-99.99,0.000000,,2013-04-10 08:52:00,
2013-04-10 02:12:00,52.0,21.0,-100.00,North,359,3.0,6.0,29,-99.99,,,-99.99,0.000000,,2013-04-10 09:12:00,
2013-04-10 02:22:00,52.0,21.0,-100.00,North,359,3.0,6.0,29,-99.99,,,-99.99,0.000000,,2013-04-10 09:22:00,
2013-04-10 02:32:00,52.0,21.0,-100.00,NNE,22,3.0,7.0,29,-99.99,,,-99.99,0.000000,,2013-04-10 09:32:00,
2013-04-10 02:40:00,50.0,21.0,-100.00,NW,310,2.0,4.0,32,-99.99,,,-99.99,0.000000,,2013-04-10 09:40:00,
2013-04-10 02:43:00,51.0,21.0,-100.00,NNE,24,2.0,6.0,30,-99.99,,,-99.99,0.000000,,2013-04-10 09:43:00,
2013-04-10 02:52:00,50.0,21.0,-100.00,NE,43,1.0,2.0,31,-99.99,,,-99.99,0.000000,,2013-04-10 09:52:00,
2013-04-10 03:03:00,50.0,21.0,-100.00,NE,43,1.0,2.0,31,-99.99,,,-99.99,0.000000,,2013-04-10 10:03:00,
2013-04-10 03:12:00,50.0,21.0,-100.00,NW,308,3.0,5.0,32,-99.99,,,-99.99,0.000000,,2013-04-10 10:12:00,
2013-04-10 03:23:00,50.0,21.0,-100.00,NW,310,2.0,4.0,32,-99.99,,,-99.99,0.000000,,2013-04-10 10:23:00,
2013-04-10 03:30:00,50.0,21.0,-100.00,North,357,2.0,6.0,32,-99.99,,,-99.99,0.000000,,2013-04-10 10:30:00,
2013-04-10 03:33:00,50.0,21.0,-100.00,NW,310,2.0,4.0,32,-99.99,,,-99.99,0.000000,,2013-04-10 10:33:00,
2013-04-10 03:52:00,50.0,20.0,-100.00,North,351,3.0,8.0,30,-99.99,,,-99.99,0.000000,,2013-04-10 10:52:00,
2013-04-10 04:02:00,50.0,21.0,-100.00,NNW,347,3.0,6.0,31,-99.99,,,-99.99,0.000000,,2013-04-10 11:02:00,
2013-04-10 04:10:00,49.0,21.0,-100.00,NW,307,2.0,4.0,33,-99.99,,,-99.99,0.000000,,2013-04-10 11:10:00,
2013-04-10 04:12:00,50.0,21.0,-100.00,NNW,348,3.0,6.0,32,-99.99,,,-99.99,0.000000,,2013-04-10 11:12:00,
2013-04-10 04:22:00,50.0,21.0,-100.00,North,357,2.0,6.0,32,-99.99,,,-99.99,0.000000,,2013-04-10 11:22:00,
2013-04-10 04:42:00,49.0,21.0,-100.00,NNE,22,2.0,6.0,33,-99.99,,,-99.99,0.000000,,2013-04-10 11:42:00,
2013-04-10 04:52:00,49.0,21.0,-100.00,North,10,2.0,6.0,33,-99.99,,,-99.99,0.000000,,2013-04-10 11:52:00,
2013-04-10 05:02:00,49.0,21.0,-100.00,NW,307,2.0,4.0,33,-99.99,,,-99.99,0.000000,,2013-04-10 12:02:00,
2013-04-10 05:22:00,49.0,21.0,-100.00,WNW,295,4.0,8.0,32,-99.99,,,-99.99,0.000000,,2013-04-10 12:22:00,
2013-04-10 05:32:00,49.0,21.0,-100.00,WNW,295,4.0,8.0,32,-99.99,,,-99.99,0.000000,,2013-04-10 12:32:00,
2013-04-10 05:42:00,50.0,21.0,-100.00,NW,316,3.0,5.0,32,-99.99,,,-99.99,0.000000,,2013-04-10 12:42:00,
2013-04-10 05:52:00,49.0,21.0,-100.00,WNW,302,2.0,5.0,33,-99.99,,,-99.99,0.000000,,2013-04-10 12:52:00,
2013-04-10 06:02:00,49.0,21.0,-100.00,WNW,302,2.0,5.0,33,-99.99,,,-99.99,0.000000,,2013-04-10 13:02:00,
2013-04-10 06:12:00,48.0,21.0,-100.00,WNW,284,2.0,3.0,34,-99.99,,,-99.99,0.000000,,2013-04-10 13:12:00,
2013-04-10 06:23:00,48.0,21.0,-100.00,WNW,299,2.0,3.0,35,-99.99,,,-99.99,0.000000,,2013-04-10 13:23:00,
2013-04-10 06:32:00,48.0,21.0,-100.00,WNW,299,2.0,3.0,35,-99.99,,,-99.99,0.000000,,2013-04-10 13:32:00,
2013-04-10 06:42:00,48.0,20.0,-100.00,North,357,2.0,5.0,33,-99.99,,,-99.99,0.000000,,2013-04-10 13:42:00,
2013-04-10 06:52:00,48.0,21.0,-100.00,WSW,258,1.0,3.0,34,-99.99,,,-99.99,1.000000,,2013-04-10 13:52:00,
2013-04-10 07:02:00,47.0,21.0,-100.00,WSW,243,2.0,6.0,36,-99.99,,,-99.99,7.000000,,2013-04-10 14:02:00,
2013-04-10 07:12:00,48.0,21.0,-100.00,West,279,5.0,9.0,34,-99.99,,,-99.99,12.000000,,2013-04-10 14:12:00,
2013-04-10 07:20:00,52.0,21.0,-100.00,WNW,289,3.0,8.0,30,-99.99,,,-99.99,198.000000,,2013-04-10 14:20:00,
2013-04-10 07:22:00,48.0,21.0,-100.00,West,279,5.0,9.0,34,-99.99,,,-99.99,12.000000,,2013-04-10 14:22:00,
2013-04-10 07:32:00,49.0,21.0,-100.00,WNW,301,3.0,5.0,33,-99.99,,,-99.99,19.000000,,2013-04-10 14:32:00,
2013-04-10 07:40:00,53.0,21.0,-100.00,WNW,296,3.0,6.0,28,-99.99,,,-99.99,278.000000,,2013-04-10 14:40:00,
2013-04-10 07:42:00,49.0,21.0,-100.00,WNW,288,2.0,4.0,33,-99.99,,,-99.99,23.000000,,2013-04-10 14:42:00,
2013-04-10 07:52:00,50.0,21.0,-100.00,WNW,296,2.0,5.0,32,-99.99,,,-99.99,28.000000,,2013-04-10 14:52:00,
2013-04-10 08:02:00,52.0,21.0,-100.00,WNW,289,3.0,8.0,30,-99.99,,,-99.99,198.000000,,2013-04-10 15:02:00,
2013-04-10 08:12:00,52.0,21.0,-100.00,WNW,289,3.0,8.0,30,-99.99,,,-99.99,198.000000,,2013-04-10 15:12:00,
2013-04-10 08:32:00,53.0,21.0,-100.00,WNW,296,3.0,6.0,28,-99.99,,,-99.99,278.000000,,2013-04-10 15:32:00,
2013-04-10 09:03:00,57.0,22.0,-100.00,NNW,328,1.0,4.0,26,-99.99,,,-99.99,438.000000,,2013-04-10 16:03:00,
2013-04-10 09:12:00,57.0,22.0,-100.00,NW,318,2.0,5.0,25,-99.99,,,-99.99,477.000000,,2013-04-10 16:12:00,
2013-04-10 09:23:00,57.0,22.0,-100.00,NW,318,2.0,5.0,25,-99.99,,,-99.99,477.000000,,2013-04-10 16:23:00,
2013-04-10 09:32:00,58.0,22.0,-100.00,NNE,24,1.0,5.0,25,-99.99,,,-99.99,517.000000,,2013-04-10 16:32:00,
2013-04-10 09:40:00,61.0,22.0,-100.00,North,11,4.0,8.0,22,-99.99,,,-99.99,736.000000,,2013-04-10 16:40:00,
2013-04-10 09:43:00,59.0,22.0,-100.00,NNW,332,3.0,6.0,24,-99.99,,,-99.99,592.000000,,2013-04-10 16:43:00,
2013-04-10 09:52:00,59.0,22.0,-100.00,NNW,332,3.0,6.0,24,-99.99,,,-99.99,592.000000,,2013-04-10 16:52:00,
2013-04-10 10:02:00,60.0,23.0,-100.00,North,7,3.0,8.0,24,-99.99,,,-99.99,666.000000,,2013-04-10 17:02:00,
2013-04-10 10:12:00,60.0,22.0,-100.00,NNW,340,3.0,6.0,23,-99.99,,,-99.99,701.000000,,2013-04-10 17:12:00,
2013-04-10 10:22:00,60.0,22.0,-100.00,NNW,340,3.0,6.0,23,-99.99,,,-99.99,701.000000,,2013-04-10 17:22:00,
2013-04-10 10:33:00,61.0,22.0,-100.00,North,11,4.0,8.0,22,-99.99,,,-99.99,736.000000,,2013-04-10 17:33:00,
2013-04-10 11:12:00,63.0,20.0,-100.00,North,5,5.0,14.0,19,-99.99,,,-99.99,887.000000,,2013-04-10 18:12:00,
2013-04-10 11:22:00,63.0,20.0,-100.00,North,5,5.0,14.0,19,-99.99,,,-99.99,887.000000,,2013-04-10 18:22:00,
2013-04-10 11:32:00,64.0,21.0,-100.00,NNE,17,4.0,11.0,19,-99.99,,,-99.99,911.000000,,2013-04-10 18:32:00,
2013-04-10 11:42:00,64.0,20.0,-100.00,NNE,12,4.0,12.0,18,-99.99,,,-99.99,935.000000,,2013-04-10 18:42:00,
2013-04-10 12:03:00,65.0,20.0,-100.00,North,4,5.0,13.0,18,-99.99,,,-99.99,977.000000,,2013-04-10 19:03:00,
2013-04-10 12:12:00,65.0,19.0,-100.00,North,359,4.0,11.0,17,-99.99,,,-99.99,993.000000,,2013-04-10 19:12:00,
2013-04-10 12:22:00,66.0,20.0,-100.00,North,5,5.0,12.0,17,-99.99,,,-99.99,1007.000000,,2013-04-10 19:22:00,
2013-04-10 12:32:00,66.0,18.0,-100.00,NNE,18,5.0,11.0,16,-99.99,,,-99.99,1020.000000,,2013-04-10 19:32:00,
2013-04-10 12:42:00,66.0,19.0,-100.00,North,2,5.0,11.0,16,-99.99,,,-99.99,1034.000000,,2013-04-10 19:42:00,
2013-04-10 12:52:00,67.0,19.0,-100.00,North,360,3.0,10.0,16,-99.99,,,-99.99,1041.000000,,2013-04-10 19:52:00,
2013-04-10 13:02:00,68.0,18.0,-100.00,NNE,15,4.0,12.0,15,-99.99,,,-99.99,1052.000000,,2013-04-10 20:02:00,
2013-04-10 13:12:00,68.0,18.0,-100.00,NNW,327,3.0,8.0,15,-99.99,,,-99.99,1061.000000,,2013-04-10 20:12:00,
2013-04-10 13:23:00,68.0,19.0,-100.00,NE,49,3.0,9.0,15,-99.99,,,-99.99,1065.000000,,2013-04-10 20:23:00,
2013-04-10 13:32:00,68.0,19.0,-100.00,NE,37,3.0,8.0,15,-99.99,,,-99.99,1065.000000,,2013-04-10 20:32:00,
2013-04-10 13:42:00,69.0,18.0,-100.00,NNW,328,2.0,7.0,14,-99.99,,,-99.99,1062.000000,,2013-04-10 20:42:00,
2013-04-10 13:52:00,69.0,18.0,-100.00,NNE,28,4.0,9.0,14,-99.99,,,-99.99,1056.000000,,2013-04-10 20:52:00,
2013-04-10 14:02:00,69.0,18.0,-100.00,NNW,328,4.0,10.0,14,-99.99,,,-99.99,1052.000000,,2013-04-10 21:02:00,
2013-04-10 14:12:00,70.0,18.0,-100.00,NW,320,3.0,9.0,14,-99.99,,,-99.99,1043.000000,,2013-04-10 21:12:00,
2013-04-10 14:22:00,71.0,17.0,-100.00,North,352,3.0,9.0,13,-99.99,,,-99.99,1034.000000,,2013-04-10 21:22:00,
2013-04-10 14:32:00,70.0,17.0,-100.00,NNW,345,3.0,9.0,13,-99.99,,,-99.99,1024.000000,,2013-04-10 21:32:00,
2013-04-10 14:42:00,71.0,18.0,-100.00,North,5,3.0,9.0,13,-99.99,,,-99.99,1010.000000,,2013-04-10 21:42:00,
2013-04-10 14:52:00,71.0,18.0,-100.00,NNW,345,4.0,10.0,13,-99.99,,,-99.99,997.000000,,2013-04-10 21:52:00,
2013-04-10 15:03:00,71.0,18.0,-100.00,ENE,76,4.0,13.0,13,-99.99,,,-99.99,980.000000,,2013-04-10 22:03:00,
2013-04-10 15:10:00,73.0,18.0,-100.00,SW,226,1.0,4.0,12,-99.99,,,-99.99,871.000000,,2013-04-10 22:10:00,
2013-04-10 15:12:00,72.0,18.0,-100.00,North,9,3.0,9.0,13,-99.99,,,-99.99,963.000000,,2013-04-10 22:12:00,
2013-04-10 15:22:00,72.0,18.0,-100.00,East,97,2.0,8.0,13,-99.99,,,-99.99,943.000000,,2013-04-10 22:22:00,
2013-04-10 15:33:00,72.0,17.0,-100.00,NE,44,2.0,8.0,12,-99.99,,,-99.99,922.000000,,2013-04-10 22:33:00,
2013-04-10 15:42:00,72.0,17.0,-100.00,ESE,106,2.0,10.0,12,-99.99,,,-99.99,897.000000,,2013-04-10 22:42:00,
2013-04-10 15:52:00,73.0,18.0,-100.00,SW,226,1.0,4.0,12,-99.99,,,-99.99,871.000000,,2013-04-10 22:52:00,
2013-04-10 16:02:00,73.0,18.0,-100.00,SW,226,1.0,4.0,12,-99.99,,,-99.99,871.000000,,2013-04-10 23:02:00,
2013-04-10 16:32:00,74.0,18.0,-100.00,NNE,15,3.0,7.0,12,-99.99,,,-99.99,765.000000,,2013-04-10 23:32:00,
2013-04-10 16:42:00,74.0,18.0,-100.00,ENE,68,3.0,9.0,12,-99.99,,,-99.99,717.000000,,2013-04-10 23:42:00,
2013-04-10 16:52:00,74.0,16.0,-100.00,ENE,72,2.0,6.0,11,-99.99,,,-99.99,681.000000,,2013-04-10 23:52:00,
2013-04-10 17:02:00,74.0,16.0,-100.00,East,92,3.0,6.0,11,-99.99,,,-99.99,645.000000,,2013-04-11 00:02:00,
2013-04-10 17:12:00,76.0,18.0,-100.00,West,272,1.0,3.0,11,-99.99,,,-99.99,607.000000,,2013-04-11 00:12:00,
2013-04-10 17:22:00,76.0,17.0,-100.00,NW,322,2.0,5.0,11,-99.99,,,-99.99,571.000000,,2013-04-11 00:22:00,
2013-04-10 17:32:00,73.0,16.0,-100.00,West,276,3.0,6.0,11,-99.99,,,-99.99,533.000000,,2013-04-11 00:32:00,
2013-04-10 17:42:00,74.0,17.0,-100.00,SSE,152,2.0,7.0,11,-99.99,,,-99.99,495.000000,,2013-04-11 00:42:00,
2013-04-10 17:52:00,74.0,16.0,-100.00,East,96,2.0,5.0,11,-99.99,,,-99.99,456.000000,,2013-04-11 00:52:00,
2013-04-10 18:02:00,74.0,17.0,-100.00,East,100,2.0,5.0,11,-99.99,,,-99.99,416.000000,,2013-04-11 01:02:00,
2013-04-10 18:12:00,74.0,16.0,-100.00,ESE,110,3.0,7.0,11,-99.99,,,-99.99,377.000000,,2013-04-11 01:12:00,
2013-04-10 18:22:00,75.0,17.0,-100.00,ESE,123,2.0,6.0,11,-99.99,,,-99.99,336.000000,,2013-04-11 01:22:00,
2013-04-10 18:32:00,76.0,17.0,-100.00,ESE,118,2.0,5.0,11,-99.99,,,-99.99,296.000000,,2013-04-11 01:32:00,
2013-04-10 18:42:00,75.0,17.0,-100.00,SE,131,3.0,8.0,11,-99.99,,,-99.99,256.000000,,2013-04-11 01:42:00,
2013-04-10 18:52:00,74.0,16.0,-100.00,SE,126,3.0,5.0,11,-99.99,,,-99.99,216.000000,,2013-04-11 01:52:00,
2013-04-10 19:02:00,74.0,16.0,-100.00,ESE,106,5.0,9.0,11,-99.99,,,-99.99,177.000000,,2013-04-11 02:02:00,
2013-04-10 19:12:00,74.0,16.0,-100.00,ESE,113,5.0,9.0,11,-99.99,,,-99.99,139.000000,,2013-04-11 02:12:00,
2013-04-10 19:22:00,73.0,17.0,-100.00,ESE,120,4.0,9.0,12,-99.99,,,-99.99,94.000000,,2013-04-11 02:22:00,
2013-04-10 19:32:00,72.0,17.0,-100.00,SE,144,2.0,5.0,12,-99.99,,,-99.99,46.000000,,2013-04-11 02:32:00,
2013-04-10 19:40:00,69.0,16.0,-100.00,SE,144,2.0,4.0,13,-99.99,,,-99.99,0.000000,,2013-04-11 02:40:00,
2013-04-10 19:42:00,72.0,17.0,-100.00,SE,144,2.0,5.0,12,-99.99,,,-99.99,46.000000,,2013-04-11 02:42:00,
2013-04-10 19:52:00,70.0,15.0,-100.00,SE,144,3.0,6.0,12,-99.99,,,-99.99,8.000000,,2013-04-11 02:52:00,
2013-04-10 20:02:00,70.0,15.0,-100.00,SE,138,2.0,5.0,12,-99.99,,,-99.99,5.000000,,2013-04-11 03:02:00,
2013-04-10 20:12:00,69.0,16.0,-100.00,SE,140,2.0,4.0,13,-99.99,,,-99.99,0.000000,,2013-04-11 03:12:00,
2013-04-10 20:22:00,69.0,16.0,-100.00,SE,144,2.0,4.0,13,-99.99,,,-99.99,0.000000,,2013-04-11 03:22:00,
2013-04-10 20:33:00,69.0,16.0,-100.00,SE,144,2.0,4.0,13,-99.99,,,-99.99,0.000000,,2013-04-11 03:33:00,
2013-04-10 20:40:00,67.0,16.0,-100.00,SSE,147,2.0,4.0,14,-99.99,,,-99.99,0.000000,,2013-04-11 03:40:00,
2013-04-10 21:03:00,68.0,15.0,-100.00,SSW,193,2.0,6.0,13,-99.99,,,-99.99,0.000000,,2013-04-11 04:03:00,
2013-04-10 21:12:00,67.0,17.0,-100.00,SSE,157,1.0,4.0,14,-99.99,,,-99.99,0.000000,,2013-04-11 04:12:00,
2013-04-10 21:22:00,67.0,16.0,-100.00,SSE,147,2.0,4.0,14,-99.99,,,-99.99,0.000000,,2013-04-11 04:22:00,
2013-04-10 21:33:00,67.0,16.0,-100.00,SSE,147,2.0,4.0,14,-99.99,,,-99.99,0.000000,,2013-04-11 04:33:00,
2013-04-10 22:22:00,65.0,16.0,-100.00,SE,138,1.0,4.0,15,-99.99,,,-99.99,0.000000,,2013-04-11 05:22:00,
2013-04-10 22:32:00,65.0,16.0,-100.00,SE,138,1.0,4.0,15,-99.99,,,-99.99,0.000000,,2013-04-11 05:32:00,
2013-04-10 22:42:00,64.0,16.0,-100.00,SE,134,1.0,3.0,15,-99.99,,,-99.99,0.000000,,2013-04-11 05:42:00,
2013-04-10 22:52:00,64.0,14.0,-100.00,SE,133,2.0,4.0,14,-99.99,,,-99.99,0.000000,,2013-04-11 05:52:00,
2013-04-10 23:02:00,64.0,15.0,-100.00,SE,142,2.0,4.0,15,-99.99,,,-99.99,0.000000,,2013-04-11 06:02:00,
2013-04-10 23:12:00,63.0,15.0,-100.00,SSE,160,2.0,6.0,15,-99.99,,,-99.99,0.000000,,2013-04-11 06:12:00,
2013-04-10 23:22:00,63.0,15.0,-100.00,South,185,3.0,5.0,15,-99.99,,,-99.99,0.000000,,2013-04-11 06:22:00,
2013-04-10 23:32:00,63.0,14.0,-100.00,South,181,3.0,6.0,15,-99.99,,,-99.99,0.000000,,2013-04-11 06:32:00,
2013-04-10 23:52:00,62.0,15.0,-100.00,South,185,3.0,5.0,16,-99.99,,,-99.99,0.000000,,2013-04-11 06:52:00,